SCP
0 0 0 0 0 0 0 0 0 0 0 0 0 0 0 0 0 0 0 -0 0 0 0 0 -0 -0 -0 -0 -0 -0 -0 -0 -0 -0 -0 -0 -0 -0 -0 -0 0 0 -0 -0 -0 -0 -0 -0 -0
0 0 0 0 0 0 0 0 0 0 0 0 0 0 0 0 0 0 0 -0 0 0 0 0 0 -0 -0 0 -0 -0 0 -0 -0 -0 -0 -0 -0 -0 -0 0 0 0 0 -0 -0 -0 -0 -0 -0
0 0 0 0 0 0 0 0 0 0 0 0 0 0 0 0 0 0 0 0 0 0 0 0 0 0 0 0 0 0 0 0 0 -0 -0 -0 0 0 0 0 0 0 0 -0 -0 -0 -0 -0 -0
0 0 0 0 0 0 0 0 0 0 0 0 0 0 0 0 0 -0 0 0 0 0 0 0 0 0 0 0 0 0 0 0 0 0 0 -0 0 0 0 0 0 0 0 0 -0 -0 -0 -0 0
0 0 0 0 0 0 0 0 0 0 0 0 0 0 0 0 0 0 0 0 0 0 0 0 0 0 0 0 0 0 0 0 0 0 0 0 0 0 0 0 0 0 0 0 0 0 0 0 0
0 0 0 0 0 0 0 0 0 0 0 0 0 0 0 0 0 0 0 0 0 0 0 0 0 0 0 0 0 0 0 0 0 0 0 0 0 0 0 0 0 0 0 0 0 0 0 0 0
0 0 0 0 0 0 0 0 0 0 0 0 0 0 0 0 0 0 0 0 0 0 0 0 0 0 0 0 0 0 0 0 0 0 0 0 0 0 0 0 0 0 0 0 0 0 0 0 0
0 0 0 0 0 0 0 0 0 0 0 0 0 0 0 0 0 0 0 0 0 0 0 0 0 0 0 0 0 0 0 0 0 0 0 0 0 0 0 0 0 0 0 0 0 0 0 0 0
0 0 0 0 0 0 0 0 0 0 0 0 0 0 0 -0 0 0 0 0 0 0 0 0 0 0 0 0 0 0 0 0 0 0 0 0 0 0 0 0 0 0 0 0 0 0 0 0 0
0 0 0 0 0 0 0 -0 0 0 0 0 0 0 0 0 0 0 0 0 0 0 0 0 0 0 0 0 0 0 0 0 0 0 0 0 0 0 0 0 0 0 0 0 0 0 0 0 0
0 0 0 0 0 0 0 0 0 0 0 0 0 0 0 0 0 0 0 0 0 0 0 0 0 0 0 0 0 0 0 0 0 0 0 0 0 0 0 0 0 0 0 0 0 0 0 0 0
0 0 0 0 0 0 0 0 -0 0 0 0 0 0 0 0 0 0 0 0 0 0 0 0 0 0 0 0 0 0 0 0 0 0 0 0 0 0 0 0 0 0 0 0 0 0 0 0 0
0 0 0 0 0 0 0 0 0 -0 0 0 0 0 0 0 0 0 0 0 0 0 0 0 0 0 0 0 0 0 0 0 0 0 0 0 0 0 0 0 0 0 0 0 0 0 0 0 0
0 0 0 0 0 0 0 0 0 0 0 0 0 0 0 0 0 0 0 0 0 0 0 0 0 0 0 0 0 0 0 0 0 0 0 0 0 0 0 0 0 0 0 0 0 0 0 0 0
0 0 0 0 0 0 0 0 0 0 0 0 0 0 0 0 0 0 0 0 0 0 0 0 0 0 0 0 0 0 0 0 0 0 0 0 0 0 0 0 0 0 0 0 0 0 0 0 0
0 0 0 0 0 0 0 0 0 0 0 0 0 0 0 0 0 0 0 0 0 0 0 0 0 0 0 0 0 0 0 0 0 0 0 0 0 0 0 0 0 0 0 0 0 0 0 0 0
0 0 0 0 0 0 0 0 -0 0 0 0 0 0 0 0 0 0 0 0 0 0 0 0 0 0 0 0 0 0 0 0 0 0 0 0 0 0 0 0 0 0 0 0 0 0 0 0 0
0 0 0 0 0 0 0 0 0 0 0 0 0 0 0 0 0 0 0 0 0 0 0 0 0 0 0 0 0 0 0 0 0 0 0 0 0 0 0 0 0 0 0 0 0 0 0 0 0
0 0 0 0 -0 0 0 0 -0 0 0 0 0 0 0 0 -0 -0 0 0 0 0 0 0 0 0 0 0 0 0 0 0 0 0 0 0 0 0 0 0 0 0 0 0 0 0 0 0 0
0 0 0 0 0 0 0 0 0 0 0 0 0 0 0 -0 -0 -0 -0 -0 -0 -0 -0 0 0 0 0 0 0 0 0 0 0 0 0 0 0 0 0 0 0 0 0 0 0 0 0 0 0
0 0 0 0 0 -0 0 0 -0 -0 -0 -0 -0 0 0 0 -0 -0 -0 -0 -0 0 0 0 0 0 0 0 0 0 0 0 0 0 0 0 0 0 0 0 0 0 0 0 0 0 0 0 0
0 0 0 0 0 0 0 -0 -0 -0 -0 0 0 0 0 0 0 0 0 0 0 0 0 0 0 0 0 0 0 0 0 0 0 0 0 0 0 0 0 0 0 0 0 0 0 0 0 0 0
-0 0 0 0 0 0 0 0 0 -0 0 0 0 0 0 0 0 0 0 0 0 0 0 0 0 0 0 0 0 0 0 0 0 0 0 0 0 0 0 0 0 0 0 0 0 0 0 0 0
0 0 -0 -0 0 0 0 0 -0 -0 0 0 0 0 0 0 0 0 0 0 0 0 0 0 0 0 0 0 0 0 0 0 0 0 0 0 0 0 0 0 0 0 0 0 0 0 0 0 0
0 0 -0 0 0 0 0 0 0 0 0 0 0 0 0 0 0 0 0 0 0 0 0 0 0 0 0 0 0 0 0 0 0 0 0 0 0 0 0 0 0 0 0 0 0 0 0 0 0
-0 0 0 0 0 0 -0 0 0 0 -0 0 0 0 0 0 0 0 0 0 0 0 0 0 0 0 0 0 0 0 0 0 0 0 0 0 0 0 0 0 0 0 0 0 0 0 0 0 0
0 0 0 0 0 0 0 0 0 -0 -0 -0 0 0 0 0 0 0 0 0 0 0 0 0 0 0 0 0 0 0 0 0 0 0 0 0 0 0 0 0 0 0 0 0 0 0 0 0 0
0 0 0 0 0 0 0 0 0 -0 -0 -0 0 0 0 0 0 0 0 0 0 0 0 0 0 0 0 0 0 0 0 0 0 0 0 0 0 0 0 0 0 0 0 0 0 0 0 0 0
0 0 0 0 0 0 0 -0 0 -0 -0 -0 -0 -0 0 0 0 0 0 0 0 0 0 0 0 0 0 0 0 0 0 0 0 0 0 0 0 0 0 0 0 0 0 0 0 0 0 0 0
0 0 0 0 0 0 0 0 0 -0 -0 -0 -0 -0 -0 -0 -0 -0 -0 0 0 0 0 0 0 0 0 0 0 0 0 0 0 0 0 0 0 0 0 0 0 0 0 0 0 0 0 0 0
Wind_Speed_500mb
12 8 6 4 4 7 7 13 6 12 9 10 14 19 15 16 7 8 9 18 10 24 33 40 43 46 46 46 43 42 41 39 38 37 37 36 34 33 32 32 33 32 25 25 26 25 22 19 17
12 9 7 4 6 6 11 10 19 22 30 36 38 14 7 14 15 10 12 12 15 23 33 41 45 47 49 49 47 46 44 41 40 39 37 37 37 35 34 34 34 35 34 28 25 22 20 18 16
10 12 8 7 8 23 11 13 21 24 33 19 10 10 10 9 14 8 14 19 21 20 29 41 47 52 53 53 52 50 47 45 43 42 40 41 40 37 35 33 32 32 31 29 26 22 21 17 13
7 11 5 6 31 16 17 14 16 11 37 27 19 15 16 30 13 27 21 17 17 20 26 36 45 52 58 59 58 55 52 49 47 45 44 44 43 40 36 34 32 31 29 27 24 26 24 16 15
14 6 5 9 29 10 25 35 16 16 17 33 19 16 24 49 48 48 41 35 30 28 24 35 47 52 57 63 63 60 57 54 51 49 48 47 45 42 39 36 35 34 33 31 31 32 25 21 20
11 3 6 16 39 21 13 39 34 36 50 60 17 37 39 37 45 48 52 45 37 32 29 29 38 51 58 65 67 65 62 58 55 53 52 50 48 45 43 41 39 38 37 36 43 37 29 27 27
11 7 9 10 36 38 29 33 30 36 38 56 24 8 39 58 44 45 59 53 46 41 39 38 41 49 60 63 69 69 67 63 60 57 56 54 51 49 47 45 42 41 44 46 41 38 35 33 31
11 7 9 14 34 51 37 33 39 42 39 59 33 11 14 27 43 41 56 62 57 54 51 50 50 58 65 69 70 73 71 68 64 61 59 57 54 51 49 49 49 47 51 48 45 42 39 37 36
12 3 13 22 27 33 16 9 9 13 29 49 49 39 48 48 45 38 43 65 65 63 61 58 57 55 65 73 75 75 74 70 67 65 63 60 59 57 57 54 57 52 50 51 48 45 43 41 39
12 9 19 11 22 24 32 19 34 18 18 49 76 73 69 57 48 42 42 59 72 70 70 66 63 62 64 71 76 78 76 76 74 73 70 68 64 65 67 55 53 55 53 53 51 48 47 43 41
11 19 10 20 43 36 31 51 41 16 28 54 51 78 74 69 51 36 44 51 64 70 75 73 70 67 66 70 76 78 81 81 78 79 75 74 69 70 71 59 56 56 57 56 54 52 48 44 43
10 18 36 30 47 32 16 61 41 48 56 72 80 83 76 79 87 80 68 58 59 69 67 71 73 74 70 70 76 78 83 86 88 85 77 80 76 78 76 69 60 59 58 55 53 50 46 45 44
11 11 36 46 51 47 48 39 58 88 72 75 79 88 98 99 98 93 89 75 73 73 70 74 77 79 78 78 78 80 83 89 92 93 86 86 81 84 81 75 66 63 59 54 51 49 47 46 46
24 31 39 45 48 55 34 52 45 84 63 61 62 71 85 94 93 95 93 95 92 93 91 85 85 83 89 90 89 88 84 87 94 99 97 93 89 88 86 80 72 67 61 54 50 49 47 47 48
31 31 35 29 28 19 39 50 51 81 88 88 72 81 100 102 100 98 98 102 97 90 86 97 100 94 99 99 97 96 90 88 90 96 101 98 94 92 90 84 77 70 63 56 53 53 53 53 50
15 11 12 8 10 15 16 59 16 43 52 69 74 82 77 87 91 88 79 72 68 77 83 89 94 101 106 108 104 103 98 94 90 90 95 101 97 96 93 87 81 73 64 60 57 57 57 55 53
8 13 26 23 10 12 11 59 24 33 46 52 74 67 67 75 79 77 79 78 52 42 53 66 75 90 100 107 108 106 105 101 94 92 95 95 102 100 99 92 84 77 68 66 61 61 61 58 55
34 28 27 37 23 52 52 69 58 59 59 61 64 81 76 73 89 76 77 76 72 78 74 69 62 73 86 97 107 110 110 106 99 97 95 90 103 102 103 94 85 82 74 72 66 64 64 61 53
15 26 37 49 31 45 40 56 77 60 66 67 76 73 87 81 78 78 85 83 81 80 79 72 69 67 75 93 92 97 118 114 106 101 98 94 90 99 100 94 91 89 81 76 70 67 68 65 57
25 36 35 37 38 44 43 60 67 57 44 55 61 69 69 83 89 71 63 67 73 76 70 69 76 77 77 85 99 102 103 110 113 109 105 100 92 91 100 103 99 94 82 79 78 76 76 68 63
30 25 26 42 52 29 46 54 56 54 53 70 71 72 71 52 39 44 44 50 56 59 62 66 70 75 85 88 94 99 85 90 95 104 109 104 95 94 98 103 102 95 88 86 86 80 81 78 73
36 23 38 48 34 23 20 31 56 43 50 37 52 59 32 33 34 32 32 32 38 42 44 54 64 72 78 86 98 102 99 99 110 110 107 106 98 94 95 97 102 98 94 93 88 85 85 80 80
25 39 42 50 45 37 8 18 20 26 34 45 42 41 56 56 53 49 42 36 33 38 42 40 45 58 69 81 95 104 106 109 105 105 102 103 101 90 90 94 99 98 93 90 90 88 91 89 83
31 29 41 37 9 8 27 19 12 18 25 37 43 61 64 70 68 57 49 43 41 40 40 39 34 36 52 67 86 102 105 104 104 103 97 91 94 92 95 96 96 97 94 95 94 89 93 90 86
40 29 10 12 9 10 17 22 14 24 28 35 35 57 61 64 69 75 72 65 56 51 48 47 40 24 28 56 71 93 100 100 104 106 100 90 89 94 96 95 97 98 99 101 95 92 94 91 89
19 14 4 13 14 29 35 7 10 20 26 36 42 48 56 68 71 76 76 67 62 55 50 48 45 34 11 33 52 64 87 91 94 96 93 89 86 86 87 88 90 95 98 97 90 90 91 92 90
12 13 20 10 18 11 8 11 10 34 32 38 47 56 59 66 72 74 78 71 66 61 53 52 48 42 27 6 27 45 56 72 77 82 83 80 78 75 72 73 81 94 97 95 94 92 92 92 89
8 10 7 7 11 13 12 14 14 40 44 38 37 47 54 58 68 75 80 77 70 64 53 44 45 47 41 22 5 23 37 42 52 61 67 67 67 65 62 61 65 76 89 94 93 92 91 91 88
5 7 7 5 6 8 13 9 17 25 28 33 32 46 54 57 63 63 75 77 75 70 63 53 46 46 44 38 20 3 17 28 36 41 47 50 53 55 55 53 56 62 71 84 91 91 91 92 90
9 8 8 5 12 11 18 17 12 22 25 30 39 44 44 49 57 61 66 73 81 84 81 70 56 49 47 42 34 21 5 11 25 33 38 42 45 44 47 49 52 55 60 69 79 90 92 92 93
Wind_Direction_500mb
274 272 265 258 50 69 248 255 265 271 301 239 296 300 248 278 176 222 334 160 179 176 176 182 188 189 190 191 192 194 195 195 194 190 188 187 184 182 180 177 173 163 159 160 165 164 164 164 163
258 240 208 170 134 219 256 238 249 246 245 276 297 280 246 251 227 267 233 200 177 183 186 186 190 194 195 195 196 197 198 197 195 191 187 183 180 178 177 174 172 172 172 176 174 173 172 174 173
226 200 186 152 210 230 231 217 235 265 278 270 283 271 265 249 236 237 263 235 200 190 195 196 196 196 198 200 201 202 201 200 199 196 192 189 186 185 184 181 181 181 182 184 186 189 185 183 194
183 176 191 171 235 226 219 217 212 275 293 273 273 279 261 263 266 293 262 231 230 219 202 204 205 204 203 203 206 206 207 205 203 201 199 196 195 193 192 190 191 192 194 198 200 200 185 200 220
199 181 193 240 251 255 236 239 254 281 280 276 277 257 268 275 275 274 258 251 232 220 229 216 212 211 210 208 209 210 210 209 208 206 204 203 202 201 200 200 201 201 204 200 206 199 204 226 238
205 188 188 229 257 246 244 237 251 258 269 280 260 255 263 288 287 274 255 251 247 241 240 219 220 220 217 214 213 214 213 213 212 210 209 208 207 207 206 205 209 210 212 214 205 207 226 239 248
176 134 224 250 267 270 253 232 212 239 253 262 248 234 278 285 297 278 257 240 240 235 234 229 224 222 222 220 217 217 217 216 216 214 214 212 211 210 212 213 212 212 205 202 205 221 234 245 252
210 139 215 227 251 276 270 229 240 230 253 273 265 236 256 285 298 308 255 233 233 233 228 230 226 223 221 220 220 219 219 219 219 218 217 215 214 215 211 208 208 209 211 217 227 233 238 246 253
200 200 221 227 228 249 254 318 218 223 268 278 277 264 270 275 297 297 279 241 231 229 228 229 229 230 227 223 221 220 221 221 221 222 220 218 216 212 207 210 215 220 222 228 233 237 242 247 251
185 207 219 227 240 263 284 291 285 264 259 278 275 273 273 280 289 283 263 253 236 233 234 231 232 232 230 225 224 222 220 220 221 222 221 218 218 215 219 221 221 223 226 230 234 238 244 248 247
214 237 236 260 262 280 290 285 272 248 258 251 268 278 280 281 274 264 262 253 249 250 237 236 233 233 232 227 225 224 222 220 220 220 219 219 218 219 225 232 225 222 226 231 235 239 242 245 243
255 249 254 273 277 278 257 284 276 248 254 272 274 276 276 274 273 270 264 257 252 251 252 244 240 237 236 232 229 229 225 224 223 223 217 219 220 222 226 231 230 227 232 236 240 240 241 239 235
238 260 274 279 287 288 286 273 273 272 267 268 268 270 273 275 275 273 270 261 255 252 255 252 246 242 240 237 234 232 230 229 227 226 221 220 222 226 226 230 233 231 235 239 241 241 240 234 227
311 303 290 293 288 288 285 274 265 271 281 275 272 273 277 279 276 277 273 271 261 252 250 251 252 249 243 240 238 234 233 234 229 228 228 221 223 226 228 229 232 235 236 240 241 241 238 229 226
295 300 299 271 254 246 264 272 253 269 277 274 273 272 276 279 280 275 278 276 272 266 260 251 250 251 246 241 240 237 238 237 235 231 232 227 225 228 229 230 233 237 238 239 237 234 230 224 223
301 279 305 33 34 285 173 270 287 298 295 280 279 274 274 279 284 288 286 281 281 274 264 258 254 251 247 241 239 238 238 240 241 237 238 227 226 230 230 231 234 235 239 238 238 234 228 226 225
335 299 304 318 265 287 209 275 260 293 299 285 291 289 291 294 294 295 294 290 276 278 281 268 258 251 250 244 241 240 239 240 241 240 240 235 225 232 232 232 234 236 238 236 235 233 228 228 226
308 307 294 293 321 320 305 289 287 285 294 288 286 290 292 292 297 303 301 296 284 285 286 278 263 254 252 248 243 238 238 240 242 242 240 239 229 232 233 233 235 237 235 235 233 232 228 226 226
316 307 297 301 309 302 276 274 281 283 279 280 281 285 291 290 296 301 301 302 300 293 288 274 265 256 248 244 231 228 236 238 240 242 244 241 233 234 231 236 236 235 236 236 234 231 226 224 218
346 321 313 299 342 320 305 284 284 283 283 289 286 283 283 292 296 298 295 293 291 289 289 286 276 265 257 250 245 235 234 239 242 241 241 242 237 231 236 237 235 235 237 233 233 230 224 219 217
339 309 309 302 310 275 270 269 279 281 264 262 263 266 276 289 305 315 307 301 294 286 279 273 265 264 264 258 246 235 227 226 229 233 239 240 239 233 235 238 236 236 238 238 235 230 225 221 215
325 314 315 305 310 301 49 294 296 289 286 282 282 281 304 345 340 340 335 322 326 321 309 285 271 254 252 252 245 236 220 220 230 239 242 241 241 237 233 237 236 236 240 239 235 231 226 224 223
296 307 293 285 276 293 296 258 296 298 304 355 353 6 17 11 5 360 358 353 348 342 340 323 291 262 243 244 245 239 233 232 239 238 239 238 239 237 232 234 235 235 240 238 236 231 226 225 224
313 306 283 271 246 229 270 237 53 27 354 8 15 14 7 3 0 358 356 354 352 354 352 346 321 287 247 231 242 238 237 233 232 236 238 240 239 234 230 230 234 235 237 234 234 231 229 228 227
347 358 345 6 359 291 327 341 50 26 21 16 7 2 1 0 359 1 360 357 354 356 359 359 355 330 248 227 231 236 237 237 239 241 240 238 237 233 232 232 230 235 235 233 233 231 230 228 229
346 9 327 319 326 295 304 247 52 39 31 23 13 2 360 359 360 1 3 360 358 358 359 3 6 3 324 225 223 225 233 236 238 240 242 242 242 239 237 236 234 234 236 236 236 234 231 230 230
328 7 299 272 279 258 290 342 328 13 18 19 8 359 357 358 358 359 1 7 5 3 7 6 8 15 14 292 225 226 231 233 238 244 246 248 248 245 243 243 240 237 237 237 235 234 232 232 233
119 298 359 355 320 303 309 313 1 7 0 2 4 353 349 356 360 1 7 10 14 11 8 11 19 21 25 29 223 222 225 233 245 250 250 252 251 248 247 248 247 245 241 238 236 235 234 234 234
341 3 346 267 260 294 318 278 37 19 1 356 349 347 348 353 0 360 8 17 20 22 21 19 20 23 29 34 42 167 217 220 227 235 248 255 255 255 253 253 253 250 245 242 238 237 236 235 234
192 183 167 113 294 279 269 272 116 36 23 356 342 348 349 352 0 11 21 17 25 28 28 28 25 26 29 31 37 45 57 214 223 228 232 237 249 260 260 259 256 254 251 247 242 239 238 236 235
Wind_Speed_850mb
12 8 6 4 4 7 7 13 6 12 9 10 14 19 15 16 7 8 9 18 10 24 33 40 43 46 46 46 43 42 41 39 38 37 37 36 34 33 32 32 33 32 25 25 26 25 22 19 17
12 9 7 4 6 6 11 10 19 22 30 36 38 14 7 14 15 10 12 12 15 23 33 41 45 47 49 49 47 46 44 41 40 39 37 37 37 35 34 34 34 35 34 28 25 22 20 18 16
10 12 8 7 8 23 11 13 21 24 33 19 10 10 10 9 14 8 14 19 21 20 29 41 47 52 53 53 52 50 47 45 43 42 40 41 40 37 35 33 32 32 31 29 26 22 21 17 13
7 11 5 6 31 16 17 14 16 11 37 27 19 15 16 30 13 27 21 17 17 20 26 36 45 52 58 59 58 55 52 49 47 45 44 44 43 40 36 34 32 31 29 27 24 26 24 16 15
14 6 5 9 29 10 25 35 16 16 17 33 19 16 24 49 48 48 41 35 30 28 24 35 47 52 57 63 63 60 57 54 51 49 48 47 45 42 39 36 35 34 33 31 31 32 25 21 20
11 3 6 16 39 21 13 39 34 36 50 60 17 37 39 37 45 48 52 45 37 32 29 29 38 51 58 65 67 65 62 58 55 53 52 50 48 45 43 41 39 38 37 36 43 37 29 27 27
11 7 9 10 36 38 29 33 30 36 38 56 24 8 39 58 44 45 59 53 46 41 39 38 41 49 60 63 69 69 67 63 60 57 56 54 51 49 47 45 42 41 44 46 41 38 35 33 31
11 7 9 14 34 51 37 33 39 42 39 59 33 11 14 27 43 41 56 62 57 54 51 50 50 58 65 69 70 73 71 68 64 61 59 57 54 51 49 49 49 47 51 48 45 42 39 37 36
12 3 13 22 27 33 16 9 9 13 29 49 49 39 48 48 45 38 43 65 65 63 61 58 57 55 65 73 75 75 74 70 67 65 63 60 59 57 57 54 57 52 50 51 48 45 43 41 39
12 9 19 11 22 24 32 19 34 18 18 49 76 73 69 57 48 42 42 59 72 70 70 66 63 62 64 71 76 78 76 76 74 73 70 68 64 65 67 55 53 55 53 53 51 48 47 43 41
11 19 10 20 43 36 31 51 41 16 28 54 51 78 74 69 51 36 44 51 64 70 75 73 70 67 66 70 76 78 81 81 78 79 75 74 69 70 71 59 56 56 57 56 54 52 48 44 43
10 18 36 30 47 32 16 61 41 48 56 72 80 83 76 79 87 80 68 58 59 69 67 71 73 74 70 70 76 78 83 86 88 85 77 80 76 78 76 69 60 59 58 55 53 50 46 45 44
11 11 36 46 51 47 48 39 58 88 72 75 79 88 98 99 98 93 89 75 73 73 70 74 77 79 78 78 78 80 83 89 92 93 86 86 81 84 81 75 66 63 59 54 51 49 47 46 46
24 31 39 45 48 55 34 52 45 84 63 61 62 71 85 94 93 95 93 95 92 93 91 85 85 83 89 90 89 88 84 87 94 99 97 93 89 88 86 80 72 67 61 54 50 49 47 47 48
31 31 35 29 28 19 39 50 51 81 88 88 72 81 100 102 100 98 98 102 97 90 86 97 100 94 99 99 97 96 90 88 90 96 101 98 94 92 90 84 77 70 63 56 53 53 53 53 50
15 11 12 8 10 15 16 59 16 43 52 69 74 82 77 87 91 88 79 72 68 77 83 89 94 101 106 108 104 103 98 94 90 90 95 101 97 96 93 87 81 73 64 60 57 57 57 55 53
8 13 26 23 10 12 11 59 24 33 46 52 74 67 67 75 79 77 79 78 52 42 53 66 75 90 100 107 108 106 105 101 94 92 95 95 102 100 99 92 84 77 68 66 61 61 61 58 55
34 28 27 37 23 52 52 69 58 59 59 61 64 81 76 73 89 76 77 76 72 78 74 69 62 73 86 97 107 110 110 106 99 97 95 90 103 102 103 94 85 82 74 72 66 64 64 61 53
15 26 37 49 31 45 40 56 77 60 66 67 76 73 87 81 78 78 85 83 81 80 79 72 69 67 75 93 92 97 118 114 106 101 98 94 90 99 100 94 91 89 81 76 70 67 68 65 57
25 36 35 37 38 44 43 60 67 57 44 55 61 69 69 83 89 71 63 67 73 76 70 69 76 77 77 85 99 102 103 110 113 109 105 100 92 91 100 103 99 94 82 79 78 76 76 68 63
30 25 26 42 52 29 46 54 56 54 53 70 71 72 71 52 39 44 44 50 56 59 62 66 70 75 85 88 94 99 85 90 95 104 109 104 95 94 98 103 102 95 88 86 86 80 81 78 73
36 23 38 48 34 23 20 31 56 43 50 37 52 59 32 33 34 32 32 32 38 42 44 54 64 72 78 86 98 102 99 99 110 110 107 106 98 94 95 97 102 98 94 93 88 85 85 80 80
25 39 42 50 45 37 8 18 20 26 34 45 42 41 56 56 53 49 42 36 33 38 42 40 45 58 69 81 95 104 106 109 105 105 102 103 101 90 90 94 99 98 93 90 90 88 91 89 83
31 29 41 37 9 8 27 19 12 18 25 37 43 61 64 70 68 57 49 43 41 40 40 39 34 36 52 67 86 102 105 104 104 103 97 91 94 92 95 96 96 97 94 95 94 89 93 90 86
40 29 10 12 9 10 17 22 14 24 28 35 35 57 61 64 69 75 72 65 56 51 48 47 40 24 28 56 71 93 100 100 104 106 100 90 89 94 96 95 97 98 99 101 95 92 94 91 89
19 14 4 13 14 29 35 7 10 20 26 36 42 48 56 68 71 76 76 67 62 55 50 48 45 34 11 33 52 64 87 91 94 96 93 89 86 86 87 88 90 95 98 97 90 90 91 92 90
12 13 20 10 18 11 8 11 10 34 32 38 47 56 59 66 72 74 78 71 66 61 53 52 48 42 27 6 27 45 56 72 77 82 83 80 78 75 72 73 81 94 97 95 94 92 92 92 89
8 10 7 7 11 13 12 14 14 40 44 38 37 47 54 58 68 75 80 77 70 64 53 44 45 47 41 22 5 23 37 42 52 61 67 67 67 65 62 61 65 76 89 94 93 92 91 91 88
5 7 7 5 6 8 13 9 17 25 28 33 32 46 54 57 63 63 75 77 75 70 63 53 46 46 44 38 20 3 17 28 36 41 47 50 53 55 55 53 56 62 71 84 91 91 91 92 90
9 8 8 5 12 11 18 17 12 22 25 30 39 44 44 49 57 61 66 73 81 84 81 70 56 49 47 42 34 21 5 11 25 33 38 42 45 44 47 49 52 55 60 69 79 90 92 92 93
Wind_Direction_850mb
274 272 265 258 50 69 248 255 265 271 301 239 296 300 248 278 176 222 334 160 179 176 176 182 188 189 190 191 192 194 195 195 194 190 188 187 184 182 180 177 173 163 159 160 165 164 164 164 163
258 240 208 170 134 219 256 238 249 246 245 276 297 280 246 251 227 267 233 200 177 183 186 186 190 194 195 195 196 197 198 197 195 191 187 183 180 178 177 174 172 172 172 176 174 173 172 174 173
226 200 186 152 210 230 231 217 235 265 278 270 283 271 265 249 236 237 263 235 200 190 195 196 196 196 198 200 201 202 201 200 199 196 192 189 186 185 184 181 181 181 182 184 186 189 185 183 194
183 176 191 171 235 226 219 217 212 275 293 273 273 279 261 263 266 293 262 231 230 219 202 204 205 204 203 203 206 206 207 205 203 201 199 196 195 193 192 190 191 192 194 198 200 200 185 200 220
199 181 193 240 251 255 236 239 254 281 280 276 277 257 268 275 275 274 258 251 232 220 229 216 212 211 210 208 209 210 210 209 208 206 204 203 202 201 200 200 201 201 204 200 206 199 204 226 238
205 188 188 229 257 246 244 237 251 258 269 280 260 255 263 288 287 274 255 251 247 241 240 219 220 220 217 214 213 214 213 213 212 210 209 208 207 207 206 205 209 210 212 214 205 207 226 239 248
176 134 224 250 267 270 253 232 212 239 253 262 248 234 278 285 297 278 257 240 240 235 234 229 224 222 222 220 217 217 217 216 216 214 214 212 211 210 212 213 212 212 205 202 205 221 234 245 252
210 139 215 227 251 276 270 229 240 230 253 273 265 236 256 285 298 308 255 233 233 233 228 230 226 223 221 220 220 219 219 219 219 218 217 215 214 215 211 208 208 209 211 217 227 233 238 246 253
200 200 221 227 228 249 254 318 218 223 268 278 277 264 270 275 297 297 279 241 231 229 228 229 229 230 227 223 221 220 221 221 221 222 220 218 216 212 207 210 215 220 222 228 233 237 242 247 251
185 207 219 227 240 263 284 291 285 264 259 278 275 273 273 280 289 283 263 253 236 233 234 231 232 232 230 225 224 222 220 220 221 222 221 218 218 215 219 221 221 223 226 230 234 238 244 248 247
214 237 236 260 262 280 290 285 272 248 258 251 268 278 280 281 274 264 262 253 249 250 237 236 233 233 232 227 225 224 222 220 220 220 219 219 218 219 225 232 225 222 226 231 235 239 242 245 243
255 249 254 273 277 278 257 284 276 248 254 272 274 276 276 274 273 270 264 257 252 251 252 244 240 237 236 232 229 229 225 224 223 223 217 219 220 222 226 231 230 227 232 236 240 240 241 239 235
238 260 274 279 287 288 286 273 273 272 267 268 268 270 273 275 275 273 270 261 255 252 255 252 246 242 240 237 234 232 230 229 227 226 221 220 222 226 226 230 233 231 235 239 241 241 240 234 227
311 303 290 293 288 288 285 274 265 271 281 275 272 273 277 279 276 277 273 271 261 252 250 251 252 249 243 240 238 234 233 234 229 228 228 221 223 226 228 229 232 235 236 240 241 241 238 229 226
295 300 299 271 254 246 264 272 253 269 277 274 273 272 276 279 280 275 278 276 272 266 260 251 250 251 246 241 240 237 238 237 235 231 232 227 225 228 229 230 233 237 238 239 237 234 230 224 223
301 279 305 33 34 285 173 270 287 298 295 280 279 274 274 279 284 288 286 281 281 274 264 258 254 251 247 241 239 238 238 240 241 237 238 227 226 230 230 231 234 235 239 238 238 234 228 226 225
335 299 304 318 265 287 209 275 260 293 299 285 291 289 291 294 294 295 294 290 276 278 281 268 258 251 250 244 241 240 239 240 241 240 240 235 225 232 232 232 234 236 238 236 235 233 228 228 226
308 307 294 293 321 320 305 289 287 285 294 288 286 290 292 292 297 303 301 296 284 285 286 278 263 254 252 248 243 238 238 240 242 242 240 239 229 232 233 233 235 237 235 235 233 232 228 226 226
316 307 297 301 309 302 276 274 281 283 279 280 281 285 291 290 296 301 301 302 300 293 288 274 265 256 248 244 231 228 236 238 240 242 244 241 233 234 231 236 236 235 236 236 234 231 226 224 218
346 321 313 299 342 320 305 284 284 283 283 289 286 283 283 292 296 298 295 293 291 289 289 286 276 265 257 250 245 235 234 239 242 241 241 242 237 231 236 237 235 235 237 233 233 230 224 219 217
339 309 309 302 310 275 270 269 279 281 264 262 263 266 276 289 305 315 307 301 294 286 279 273 265 264 264 258 246 235 227 226 229 233 239 240 239 233 235 238 236 236 238 238 235 230 225 221 215
325 314 315 305 310 301 49 294 296 289 286 282 282 281 304 345 340 340 335 322 326 321 309 285 271 254 252 252 245 236 220 220 230 239 242 241 241 237 233 237 236 236 240 239 235 231 226 224 223
296 307 293 285 276 293 296 258 296 298 304 355 353 6 17 11 5 360 358 353 348 342 340 323 291 262 243 244 245 239 233 232 239 238 239 238 239 237 232 234 235 235 240 238 236 231 226 225 224
313 306 283 271 246 229 270 237 53 27 354 8 15 14 7 3 0 358 356 354 352 354 352 346 321 287 247 231 242 238 237 233 232 236 238 240 239 234 230 230 234 235 237 234 234 231 229 228 227
347 358 345 6 359 291 327 341 50 26 21 16 7 2 1 0 359 1 360 357 354 356 359 359 355 330 248 227 231 236 237 237 239 241 240 238 237 233 232 232 230 235 235 233 233 231 230 228 229
346 9 327 319 326 295 304 247 52 39 31 23 13 2 360 359 360 1 3 360 358 358 359 3 6 3 324 225 223 225 233 236 238 240 242 242 242 239 237 236 234 234 236 236 236 234 231 230 230
328 7 299 272 279 258 290 342 328 13 18 19 8 359 357 358 358 359 1 7 5 3 7 6 8 15 14 292 225 226 231 233 238 244 246 248 248 245 243 243 240 237 237 237 235 234 232 232 233
119 298 359 355 320 303 309 313 1 7 0 2 4 353 349 356 360 1 7 10 14 11 8 11 19 21 25 29 223 222 225 233 245 250 250 252 251 248 247 248 247 245 241 238 236 235 234 234 234
341 3 346 267 260 294 318 278 37 19 1 356 349 347 348 353 0 360 8 17 20 22 21 19 20 23 29 34 42 167 217 220 227 235 248 255 255 255 253 253 253 250 245 242 238 237 236 235 234
192 183 167 113 294 279 269 272 116 36 23 356 342 348 349 352 0 11 21 17 25 28 28 28 25 26 29 31 37 45 57 214 223 228 232 237 249 260 260 259 256 254 251 247 242 239 238 236 235